www.pogodaiklimat.ru

Погода и климат >> Архив погоды >> Россия >> Костромская область >> Пыщуг


ПОГОДА в Пыщуге

  • Прогноз погоды в Пыщуге
  • Монитор погоды в Пыщуге
  • Климат города

АРХИВ ПОГОДЫ в Пыщуге

Время (UTC), дата Ветер
(напр.,м/с)
 
Видим.   Явления Облачность Т
(С)
Тd
(С)
f
(%)
Тe
(С)
Тes
(С)
Комфортность P
(гПа)
Po
(гПа)
Тmin
(С)
Tmax
(С)
R
(мм)
R24
(мм)
S
(см)
03 16.09 СВ 1 15 км местами туман поземный 8/0
[Ac trans Ci sp]
+6.4 +6.0 97 +5 +5 1019.5 1000.2 +5.8
06 16.09 В 2 21 км 9/3 600 м
[Sc Ac trans Ci sp]
+11.0 +8.5 85 +10 +11 1017.3 998.3
09 16.09 ЮВ 3 24 км 8/3 600 м
[Sc Ac trans Ci sp]
+18.1 +9.5 57 +18 +21 1014.6 996.2
12 16.09 В 4 27 км 9/8 600 м
[Cb cap Ac trans Ci sp]
+15.5 +9.5 67 +15 +15 1012.0 993.4
15 16.09 В 1 23 км 10/6 600 м
[Cb cap Ac trans]
+14.9 +10.5 75 +15 +15 1009.6 991.1 +18.3
18 16.09 В 1 20 км 8/8 600 м
[Sc]
+13.3 +10.4 83 +13 +13 1007.7 989.1
21 16.09 З 1 20 км 10/10 600 м
[Sc]
+13.3 +10.9 85 +13 +13 1006.8 988.2
00 17.09 штиль 0 20 км 10/10 600 м
[Sc]
+11.3 +10.5 95 +11 +11 1005.9 987.2
03 17.09 СЗ 2 20 км 10/10 600 м
[Cb cap]
+12.5 +11.5 94 +11 +11 1005.5 986.9 +10.8
06 17.09 СЗ 1 17 км слабый ливневой дождь 10/10 300 м
[Cb cap]
+11.3 +10.5 95 +11 +11 1007.2 988.4
09 17.09 СЗ 4 25 км {ливн. осадки} 8/8 600 м
[Cb cap]
+12.2 +8.4 78 +10 +11 1009.0 990.3
12 17.09 С 3 27 км {ливн. осадки} 8/8 600 м
[Cb cap]
+13.3 +6.7 64 +12 +13 1010.7 992.0
15 17.09 З 2 29 км 3/3 600 м
[Cb cap Ci sp]
+10.9 +6.8 76 +10 +10 1012.6 993.7 +13.7 6
18 17.09 штиль 0 20 км ясно +6.1 +5.2 94 +5 +5 1014.1 994.9
21 17.09 штиль 0 20 км ясно +4.9 +4.0 94 +4 +4 1013.9 994.6
00 18.09 штиль 0 20 км ясно +3.6 +3.1 97 +2 +2 1013.2 993.7
03 18.09 штиль 0 21 км 9/4 600 м
[Sc Ac trans Ci sp]
+3.5 +3.0 97 +2 +2 1011.4 992.0 +3.2
06 18.09 Ю 2 26 км 10/0
[Ac und]
+8.2 +6.3 88 +6 +7 1009.3 990.3
09 18.09 Ю 4 16 км слабый ливневой дождь 10/10 600 м
[Cb cap]
+9.1 +8.2 94 +6 +6 1006.9 988.0
12 18.09 ЮЗ 4 19 км слабый ливневой дождь 10/10 600 м
[Cb cap]
+9.2 +8.8 97 +6 +6 1004.9 986.1
15 18.09 ЮЗ 4 16 км слабый ливневой дождь 10/10 300 м
[Cb cap]
+9.7 +9.5 99 +7 +7 1003.4 984.6 +9.9 7
18 18.09 З 3 10 км слабый ливневой дождь 10/10 300 м
[Cb cap]
+10.2 +9.5 95 +8 +8 1003.4 984.7
21 18.09 СЗ 3 10 км слабый ливневой дождь 10/10 600 м
[Cb cap]
+8.5 +7.7 95 +6 +6 1004.0 985.2
00 19.09 СЗ 3 4000 м слабый ливневой дождь 10/10 300 м
[Cb cap]
+7.9 +7.3 96 +5 +5 1005.3 986.4
03 19.09 СЗ 3 19 км слабый ливневой дождь 10/10 300 м
[Cb cap]
+7.4 +6.2 92 +4 +4 1007.2 988.1 +7.2 5
06 19.09 С 2 22 км {ливн. осадки} 9/9 600 м
[Cb cap]
+8.9 +6.5 85 +7 +7 1008.5 989.6
09 19.09 З 2 23 км 9/9 600 м
[Sc]
+11.0 +6.4 73 +10 +10 1009.3 990.5
12 19.09 СЗ 2 25 км 8/8 600 м
[Cu Sc]
+12.4 +6.1 65 +12 +12 1009.2 990.5
15 19.09 З 1 20 км 3/0
[Ac trans]
+10.5 +5.5 71 +10 +10 1010.3 991.5 +13.6
18 19.09 СЗ 1 20 км 1/0
[Ac trans]
+6.5 +4.7 88 +5 +5 1011.0 991.9
21 19.09 СЗ 1 20 км ясно +4.8 +4.3 97 +3 +3 1011.2 991.9
00 20.09 штиль 0 20 км 10/0
[Ci sp]
+4.0 +3.5 97 +3 +3 1011.0 991.7
03 20.09 штиль 0 500 м туман ?/? +5.0 +4.8 99 +4 +4 1010.5 991.3 +3.3
06 20.09 Ю 1 21 км {туман} 10/10 300 м
[St]
+6.8 +6.1 95 +6 +6 1009.9 990.8
09 20.09 В 2 16 км слабый ливневой дождь 10/10 300 м
[Cb cap]
+9.0 +8.8 99 +7 +7 1008.4 989.5
12 20.09 В 1 11 км слабый ливневой дождь {морось} 10/10 300 м
[St]
+9.7 +9.5 99 +9 +9 1009.0 990.1
15 20.09 штиль 0 13 км слабый ливневой дождь 10/10 300 м
[Cb cap]
+10.1 +9.9 99 +9 +9 1009.5 990.7 +10.3 5
18 20.09 штиль 0 4000 м в посл. час морось {ливн. осадки} 10/10 300 м
[St]
+9.8 +9.8 100 +9 +9 1010.7 991.9
21 20.09 штиль 0 2000 м морось 10/10 300 м
[St]
+9.7 +9.7 100 +9 +9 1011.5 992.5
00 21.09 штиль 0 10 км {морось} 10/10 300 м
[St]
+9.9 +9.9 100 +9 +9 1012.5 993.6
03 21.09 ЮЗ 1 3000 м дымка 10/10 300 м
[St]
+10.3 +10.3 100 +10 +10 1013.6 994.7 +8.8 3
06 21.09 ЮЗ 2 7000 м дымка {туман} 10/10 300 м
[St]
+13.0 +12.6 97 +12 +12 1014.0 995.3
09 21.09 ЮЗ 2 24 км 8/6 600 м
[Cu Sc Ci sp]
+16.9 +15.3 90 +17 +19 1014.0 995.5
12 21.09 З 2 27 км 8/8 600 м
[Cu Sc]
+19.8 +14.9 73 +22 +23 комфорт 1014.2 995.9
15 21.09 штиль 0 25 км 10/0
[Ci sp]
+18.1 +15.8 86 +18 +18 1014.7 996.3 +20.4
18 21.09 штиль 0 20 км 8/0
[Ac trans Ci sp]
+14.5 +13.8 96 +14 +14 1015.1 996.5
21 21.09 штиль 0 20 км 6/0
[Ci sp]
+12.3 +12.1 99 +12 +12 1016.1 997.3
00 22.09 штиль 0 500 м туман 4/0
[Ci sp]
+10.9 +10.7 99 +10 +10 1016.7 997.8
03 22.09 ЮЗ 1 600 м туман 8/0
[Ac trans Ci sp]
+9.7 +9.5 99 +9 +9 1016.9 997.8 +9.3
06 22.09 ЮЗ 1 500 м туман ?/? +12.5 +12.3 99 +12 +12 1017.5 998.6
09 22.09 Ю 2 500 м туман ?/? +15.1 +15.0 99 +15 +15 1017.0 998.3
12 22.09 В 1 2100 м {туман} 3/0
[Ci sp]
+21.1 +17.4 79 +25 +28 комфорт 1015.1 996.9
15 22.09 Ю 2 25 км 3/0
[Ci sp]
+19.1 +13.7 71 +21 +21 комфорт 1014.3 995.8 +22.5
18 22.09 ЮЗ 1 20 км ясно +15.2 +14.1 93 +16 +16 1014.0 995.4
21 22.09 Ю 1 20 км ясно +13.8 +12.9 94 +14 +14 1013.1 994.4

 

Местоположение метеостанции Пыщуг (Костромская область, Россия): широта 58.88 долгота 45.71 высота над уровнем моря 157 м.

В архиве по умолчанию представлена погода в Пыщуге за последнюю неделю. Архивные данные за месяц целиком и за предыдущие месяцы, начиная с января 2011 года, Вы можете получить, выбрав интересующий диапазон дат из раскрывающегося списка и нажав кнопку "Ввод!".


*Определитесь, кто Вы:
робот инопланетянин человек

Внимание! Время в таблицах - всемирное. Для получения местного времени необходимо прибавить поправку, которая в Пыщуге равна 3 ч.

Смотрите также архив погоды в соседних городах и на ближайших метеорологических станциях:

Погода в Шарье (Костромская область, Россия) (58 км)
Погода в Вохме (Костромская область, Россия) (61 км)
Погода в Никольске (Вологодская область, Россия) (74 км)
Погода в Кологриве (Костромская область, Россия) (80 км)
Погода в Мантурово (Костромская область, Россия) (82 км)
Погода в Шабалино (Кировская область, Россия) (104 км)
Погода в Ветлуге (Нижегородская область, Россия) (115 км)
Погода в Даровском (Кировская область, Россия) (131 км)
Погода в Шахунье (Нижегородская область, Россия) (146 км)
Погода в Николо-Поломе (Костромская область, Россия) (147 км)

Пояснения к столбцам:

Ветер - указаны скорость ветра в м/с - средняя за 10 мин, порывы в срок и между сроками (в фигурных скобках) и направление, откуда дует ветер: С - северный, СВ - северо-восточный, В - восточный, ЮВ - юго-восточный, Ю - южный, ЮЗ - юго-западный, З - западный, СЗ - северо-западный.
Видимость - горизонтальная дальность видимости в метрах или километрах. При видимости от 1 до 10 км при отсутствии осадков обычно наблюдается дымка, при ухудшении видимости до 1 км и менее - туман. В сухую погоду видимость может ухудшаться дымом, пылью или мглою.
Явления - указаны атмосферные явления, наблюдавшиеся в срок или в последний час перед сроком; фигурными скобками обозначены явления, наблюдавшиеся между сроками (за 1-3 часа до срока); квадратными скобками обозначены град или гололедные отложения с указанием их диаметра в мм.
Облачность - указаны через наклонную черту общая и нижняя облачность в баллах и высота нижней границы облаков в метрах; квадратными скобками обозначены формы облаков: Ci - перистые, Cs - перисто-слоистые, Cc - перисто-кучевые, Ac - высококучевые, As - высокослоистые, Sc - слоисто-кучевые, Ns - слоисто-дождевые, Cu - кучевые, Cb - кучево-дождевые. Подробнее классификацию облаков см. в Атласе облаков (PDF).
T - Температура воздуха - температура, измеренная на высоте 2 м над землей.
Td - Температура точки росы - температура, при понижении до которой содержащийся в воздухе водяной пар достигнет насыщения.
f - Относительная влажность воздуха - влажноcть воздуха, измеренная на высоте 2 м над землей.
Te - Эффективная температура - температура, которую ощущает одетый по сезону человек в тени. Характеристика душности погоды. При расчете учитывается влияние влажности воздуха и скорости ветра на теплоощущения человека.
Tes - Эффективная температура на солнце - температура, которую ощущает человек, с поправкой на солнечный нагрев. Характеристика знойности погоды. Зависит от высоты солнца над горизонтом, облачности и скорости ветра. Ночью, в пасмурную погоду, а также при ветре 12 м/с и более поправка равна нулю.
P - Атмосферное давление - приведенное к уровню моря атмосферное давление.
Po - Атмосферное давление - измеренное на уровне метеостанции атмосферное давление.
Tmin - Минимальная температура - минимум температуры воздуха на высоте 2 м над землей.
Tmax - Максимальная температура - максимум температуры воздуха на высоте 2 м над землей.
R - Количество осадков - Количество выпавших осадков за период времени, мм. При наведении курсора мыши на число - период времени, за который выпало указанное количество осадков.
R24 - Количество осадков - Количество выпавших осадков за 24 часа, мм.
S - Снежный покров - Высота снежного покрова, см. При наведении курсора мыши на число - состояние снежного покрова и степень покрытия местности в баллах.